Location: Klickitat County Star Party
(45.8642°N, 120.6771°W)
Time: 05:18:33
(UTC-07:00)

SO-50 - Pass Details

Date: 29 May 2019
Orbit: 586 x 700 km, 64.6° (Epoch: 20 June)

Event Time Altitude Azimuth Distance (km) Brightness Sun altitude
Rises 03:32:13 0° 308° (NW) 3,071 ? -14.2°
Reaches altitude 10° 03:35:27 10° 287° (WNW) 2,134 ? -13.9°
Maximum altitude 03:38:13 15° 251° (WSW) 1,777 ? -13.6°
Enters shadow 03:38:14 15° 251° (WSW) 1,777 ? -13.6°
